Regional Weather Roundup
Issued by NWS

Home | Current Version | Previous Version | Graphics & Text | Print | Product List | Glossary Off
Versions: 1 2 3 4 5 6 7 8 9 10 11 12 13 14 15 16 17 18 19 20 21 22 23 24 25 26 27 28 29 30 31 32 33 34 35 36 37 38 39 40 41 42 43 44 45 46 47 48 49 50

000
ASUS43 KMKX 200100
RWRWI

WISCONSIN REGIONAL WEATHER ROUNDUP
NATIONAL WEATHER SERVICE MILWAUKEE/SULLIVAN WI
800 PM CDT THU APR 19 2018

NOTE: "FAIR" INDICATES FEW OR NO CLOUDS BELOW 12,000 FEET WITH NO
SIGNIFICANT WEATHER AND/OR OBSTRUCTIONS TO VISIBILITY.

WIZ001-002-006>008-014>016-023>028-200200-
NORTHWEST WISCONSIN

CITY           SKY/WX    TMP DP  RH WIND       PRES   REMARKS
SUPERIOR ARPT  FAIR      52  15  22 SW5       30.38S
ASHLAND        FAIR      45  15  30 CALM      30.40S
HAYWARD        FAIR      46  27  47 CALM      30.40R
SIREN          FAIR      47  19  32 W6        30.42R
CUMBERLAND     FAIR      41  19  42 SW6       30.41S
RICE LAKE      FAIR      48  17  29 SW3       30.43S
CHETEK         FAIR      46  18  32 CALM      30.42S
LADYSMITH      FAIR      46  16  30 CALM      30.42S
EAU CLAIRE     NOT AVBL
MENOMONIE      FAIR      47  16  28 W3        30.44R
NEW RICHMOND   FAIR      46  17  31 CALM      30.44S
OSCEOLA        FAIR      50  15  24 CALM      30.46S
$$

WIZ003>005-009-010-017-018-200200-
NORTH CENTRAL WISCONSIN

CITY           SKY/WX    TMP DP  RH WIND       PRES   REMARKS
MANITOWISH WTR FAIR      45   7  21 CALM      30.39S
ARBOR VITAE    FAIR      45  11  25 N3        30.38S
WOODRUFF       FAIR      45  11  25 N3        30.38S
RHINELANDER    FAIR      48   5  17 CALM      30.39R
EAGLE RIVER    FAIR      44   6  20 NW5       30.38R
LAND O LAKES   FAIR      39   6  25 CALM      30.40S
PHILLIPS       FAIR      47  14  26 W3        30.38S
TOMAHAWK       FAIR      46   8  21 CALM      30.39R
MEDFORD        FAIR      46  15  29 W7        30.39R
MERRILL          N/A     48  10  21 N5        30.39R
$$

WIZ029-030-035-036-043>047-200200-
CENTRAL WISCONSIN

CITY           SKY/WX    TMP DP  RH WIND       PRES   REMARKS
WAUSAU         FAIR      45  21  38 CALM      30.37S
MOSINEE        PTCLDY    43  21  42 W7        30.40S
MARSHFIELD     FAIR      43  21  41 W7        30.40R
STEVENS POINT  FAIR      45  19  36 W3        30.41R
WAUPACA        FAIR      46  20  35 W6        30.39S
WAUTOMA        FAIR      43  21  41 W6        30.41R
WISC RAPIDS    FAIR      45  18  34 W3        30.42R
CAMP DOUGLAS   FAIR      39  24  53 W6        30.42R WCI  35
$$

WIZ011>013-019>022-031-037>040-048>050-200200-
NORTHEAST WISCONSIN

CITY           SKY/WX    TMP DP  RH WIND       PRES   REMARKS
ANTIGO         FAIR      42  15  33 CALM      30.38R
SHAWANO        FAIR      46  21  37 CALM      30.37R
OCONTO         FAIR      44   9  24 SE3       30.38R
STURGEON BAY   FAIR      42  14  32 CALM      30.39R
GREEN BAY      FAIR      42  25  50 S5        30.38R
MANITOWOC      FAIR      45  23  42 W3        30.39S
APPLETON       CLEAR     43  19  39 W10       30.37R
CLINTONVILLE   FAIR      48  18  30 W3        30.37R
OSHKOSH        FAIR      44  21  40 W5        30.39R
$$

WIZ032>034-041-042-053>061-200200-
SOUTHWEST WISCONSIN

CITY           SKY/WX    TMP DP  RH WIND       PRES   REMARKS
LA CROSSE      FAIR      44  24  45 W5        30.45R
SPARTA         FAIR      46  21  37 W3        30.45R
VIROQUA        FAIR      43  22  44 CALM      30.44S
BOSCOBEL       FAIR      44  23  43 NW3       30.45S
PRAIRIE DU CHI FAIR      44  24  45 NW5       30.45R
PLATTEVILLE    FAIR      44  29  56 NW5       30.45R
$$

WIZ056-057-062-063-064-067-068-200200-
SOUTH CENTRAL WISCONSIN

CITY           SKY/WX    TMP DP  RH WIND       PRES   REMARKS
REEDSBURG      FAIR      44  23  44 W5        30.42S
BARABOO/DELLS  FAIR      45  20  37 W3        30.42R
LONE ROCK      FAIR      42  26  53 W3        30.44R
MINERAL POINT  FAIR      43  27  52 CALM      30.43R
MADISON        FAIR      42  25  50 CALM      30.42S
MIDDLETON      FAIR      41  28  60 W5        30.43R
WATERTOWN      FAIR      44  26  49 CALM      30.41S
MONROE         FAIR      45  23  42 N7        30.42R
JANESVILLE     CLEAR     45  18  33 CALM      30.42S
$$

WIZ051-052-058>065-066-070>072-200200-
SOUTHEAST WISCONSIN

CITY           SKY/WX    TMP DP  RH WIND       PRES   REMARKS
MILWAUKEE      FAIR      46  26  45 W6        30.40F
WAUKESHA       CLEAR     39  25  56 W5        30.41F
MILWAUKEE/TIMM CLEAR     41  25  52 W3        30.41F
RACINE         FAIR      44  23  43 W5        30.41F
BURLINGTON     FAIR      41  24  50 W3        30.42S
KENOSHA        FAIR      41  26  55 NW5       30.41S
FOND DU LAC    FAIR      45  24  43 SW6       30.39S
SHEBOYGAN      FAIR      40  28  62 W6        30.39R
WEST BEND      FAIR      43  27  52 W5        30.40S
JUNEAU         FAIR      40  27  60 CALM      30.42R
$$

LSZ147-162-200200-
LAKE SUPERIOR

STATION/POSITION TIME  TEMP    WIND        PRES    WAVE
                       AIR SEA DIR/SP/G            HT/PER
                 (UTC) (F)     (DEG/KT/KT) (MB)    (FT/S)
DEVILS ISLAND    0000   48     170/  7/ 11 1029.4R
SAXON HARBOR     0030   39     190/  2/  2 1028.8S
$$

LMZ867-665-643>646-200200-
LAKE MICHIGAN

STATION/POSITION TIME  TEMP    WIND        PRES    WAVE
                       AIR SEA DIR/SP/G            HT/PER
                 (UTC) (F)     (DEG/KT/KT) (MB)    (FT/S)
NORTHPORT PIER   0040   40                 1028.1R
KEWAUNEE LAKESHO 0024   41      CALM  /  1 1028.0
SHEBOYGAN LAKESH 0000   49     270/  7/  8 1029.2R
PORT WASHINGTON  0030   47     290/  3/  6 1030.1S
MILWAUKEE LAKESH 0030   46     280/  9/ 10   N/A
KENOSHA   LAKESH 0000   47                 1029.5
$$

TC  - TEMPERATURE IN CELSIUS
VSB - VISIBILITY IN STATUTE MILES
WCI - WIND CHILL INDEX
HX  - HEAT INDEX




USA.gov is the U.S. government's official web portal to all federal, state and local government web resources and services.